Terminal Aerodrome Forecast
Issued by NWS

Home | Current Version | Previous Version | Text Only | Print | Product List | Glossary Off
Versions: 1 2 3 4 5 6 7 8 9 10 11 12 13 14 15 16 17 18 19 20 21 22 23 24 25 26 27 28

958
FTUS43 KABR 251729
TAFPIR
TAF
KPIR 251729Z 2518/2618 02015KT P6SM VCSH OVC014
     FM260200 36014G21KT P6SM VCSH OVC020
     FM260800 34013KT P6SM OVC020
     FM261300 33015G23KT P6SM BKN020
     FM261700 33015G23KT P6SM BKN035=

USA.gov is the U.S. government's official web portal to all federal, state and local government web resources and services.